Regional Weather Roundup
Issued by NWS

Home | Current Version | Previous Version | Graphics & Text | Print | Product List | Glossary On
Versions: 1 2 3 4 5 6 7 8 9 10 11 12 13 14 15 16 17 18 19 20 21 22 23 24 25 26 27 28 29 30 31 32 33 34 35 36 37 38 39 40 41 42 43 44 45 46 47 48 49 50
000
ASUS43 KIND 222359
RWRIN

WEATHER ROUNDUP FOR INDIANA
NATIONAL WEATHER SERVICE INDIANAPOLIS IN
800 PM EDT MON AUG 22 2016

NOTE: "FAIR" INDICATES FEW OR NO CLOUDS BELOW 12,000 FEET WITH NO
SIGNIFICANT WEATHER AND/OR OBSTRUCTIONS TO VISIBILITY.

* - STATION DOES NOT REPORT WEATHER SUCH AS PRECIPITATION OR FOG.

+ - STATION NOT QUALITY CONTROLLED BY THE NATIONAL WEATHER SERVICE.
    USE DATA WITH CAUTION...ESPECIALLY DEWPOINT AND RELATIVE
    HUMIDITY OBSERVATIONS.

INZ001>003-010>013-019-020-230100-
NORTHWEST INDIANA

CITY           SKY/WX    TMP DP  RH WIND       PRES   REMARKS
GARY /AIRPORT/ CLEAR     77  55  47 S5        30.15F
KNOX *+        CLEAR     72  36  26 S3        30.17S
MONTICELLO +   PTCLDY    74  54  49 CALM      30.16F
6HR MIN TEMP:  74; 6HR MAX TEMP:  78;

RENSSELAER +   CLEAR     73  59  60 CALM      30.17S

$$

LMZ046-743>745-230100-
SOUTHERN LAKE MICHIGAN

STATION/POSITION TIME  TEMP    WIND        PRES    WAVE
                       AIR SEA DIR/SP/G            HT
                 (UTC) (F)     (DEG/KT/KT) (MB)    (FT)
BURNS HARBOR     2300   77     200/  8/ 10 1021.7S
MICHIGAN CITY    2300   74      10/  1/  3   N/A
5NW MICH CITY    2300   74 74   70/  4/  6   N/A     1

$$

INZ004-005-014>016-021>024-230100-
NORTH CENTRAL INDIANA

CITY           SKY/WX    TMP DP  RH WIND       PRES   REMARKS
GOSHEN         CLEAR     73  56  54 SW3       30.18S
6HR MIN TEMP:  73; 6HR MAX TEMP:  77;

SOUTH BEND     CLEAR     73  56  54 SW3       30.18S
6HR MIN TEMP:  73; 6HR MAX TEMP:  77;


$$

INZ006>009-017-018-025>027-230100-
NORTHEAST INDIANA

CITY           SKY/WX    TMP DP  RH WIND       PRES   REMARKS
ANGOLA *+      PTCLDY    70  63  78 CALM      30.19S
FORT WAYNE     PTCLDY    73  55  53 SW5       30.20R
6HR MIN TEMP:  73; 6HR MAX TEMP:  79; 6HR PCP: TRACE;


$$

INZ028-029-035-036-043>045-051>053-230100-
WEST CENTRAL INDIANA

CITY           SKY/WX    TMP DP  RH WIND       PRES   REMARKS
CRAWFORDSVL +  CLEAR     71  62  74 CALM      30.18S
6HR MIN TEMP:  71; 6HR MAX TEMP:  76;

GREENCASTLE +  CLEAR     72  64  78 CALM      30.19R
LAFAYETTE      CLEAR     74  60  61 CALM      30.16S
6HR MIN TEMP:  74; 6HR MAX TEMP:  78;

TERRE HAUTE    CLEAR     76  59  55 CALM      30.17S
6HR MIN TEMP:  76; 6HR MAX TEMP:  80;


$$

INZ030>032-037>040-046>048-054>057-064-065-230100-
CENTRAL INDIANA

CITY           SKY/WX    TMP DP  RH WIND       PRES   REMARKS
COLUMBUS       PTCLDY    73  63  68 E5        30.19S
INDIANAPOLIS   PTCLDY    74  56  53 S6        30.18R
6HR MIN TEMP:  74; 6HR MAX TEMP:  79;

-EAGLE CREEK   CLEAR     76  55  48 SW3       30.18R
6HR MIN TEMP:  75; 6HR MAX TEMP:  80;

KOKOMO *+      PTCLDY    75  57  53 CALM      30.18S
6HR MIN TEMP:  75; 6HR MAX TEMP:  79;

MT COMFORT *+  CLEAR     70  61  73 SE3       30.19S
SHELBYVILLE    CLEAR     75  59  57 SE5       30.18S
6HR MIN TEMP:  75; 6HR MAX TEMP:  79;


$$

INZ033-034-041-042-049-050-058-059-230100-
EAST CENTRAL INDIANA

CITY           SKY/WX    TMP DP  RH WIND       PRES   REMARKS
MUNCIE         CLEAR     73  56  54 W3        30.19S
6HR MIN TEMP:  72; 6HR MAX TEMP:  79;


$$

INZ060-061-067>069-081>083-085>088-230100-
SOUTHWEST INDIANA

CITY           SKY/WX    TMP DP  RH WIND       PRES   REMARKS
EVANSVILLE     PTCLDY    75  60  59 SE3       30.16S
6HR MIN TEMP:  75; 6HR MAX TEMP:  82;

HUNTINGBURG *+ CLEAR     75  63  64 CALM      30.17S
6HR MIN TEMP:  75; 6HR MAX TEMP:  81;


$$

INZ062-063-066-070>080-084-089>092-230100-
SOUTH CENTRAL AND SOUTHEAST INDIANA

CITY           SKY/WX    TMP DP  RH WIND       PRES   REMARKS
BLOOMINGTON    CLEAR     73  65  75 CALM      30.18S
6HR MIN TEMP:  73; 6HR MAX TEMP:  80;

MADISON *+     CLEAR     73  63  68 CALM      30.21S

$$





USA.gov is the U.S. government's official web portal to all federal, state and local government web resources and services.